DW4707 Campi Bisenzio - Firenze IT current weather conditions

sailwx.info

Last reported at 2016-May-22 15:30 UTC.
Time now 2016-May-24 13:45 UTC

Location: N 43°50' E 011°08'.
View on Google Maps.

See reports from other nearby stations

  
Tides and Currents Weather Stations Pressure Air Temp Water Temp Dewpoint Dewpoint Depression Visibility Wind Speed Wind Dir Waves Ship Positions
date/time (UTC)wind fromknots sea level pressurealtimeterstation pressurevisibilityair tempwater tempwave heightnotes
2016-May-24 12:51 338 22.8
2016-May-24 12:36 068 0 gusting 0 22.8
2016-May-24 12:31 22.8
2016-May-24 12:26 305 22.8
2016-May-24 12:16 159 22.2
2016-May-24 12:11 328 22.2
2016-May-24 12:01 301 2 gusting 4 22.2
2016-May-24 11:46 006 21.7
2016-May-24 11:41 096 21.7
2016-May-24 11:21 022 22.2
2016-May-24 11:11 022 1 gusting 1 21.7
2016-May-24 11:06 022 21.7
2016-May-24 10:51 022 0 gusting 0 22.2
2016-May-24 10:41 079 0 gusting 0 21.7
2016-May-24 10:36 045 22.2
2016-May-24 10:31 129 21.7
2016-May-24 10:16 055 21.7
2016-May-24 10:11 202 21.1
2016-May-24 10:01 056 21.1
2016-May-24 09:41 022 20.6
2016-May-24 09:36 068 20.6
2016-May-24 09:26 045 20.0
2016-May-24 09:21 338 20.6
2016-May-24 09:11 133 20.0
2016-May-24 09:06 202 19.4
2016-May-24 09:01 033 19.4
2016-May-24 08:56 046 18.9
2016-May-24 08:46 036 18.9
2016-May-24 08:41 022 18.9
2016-May-24 08:36 090 18.9
2016-May-24 08:31 172 18.3
2016-May-24 08:26 024 18.3
2016-May-24 08:21 135 18.3
2016-May-24 08:06 022 17.2
2016-May-24 07:56 16.7
2016-May-24 07:51 158 16.1
2016-May-24 07:46 052 16.1
2016-May-24 07:41 023 15.6
2016-May-24 07:36 045 15.6
2016-May-24 07:31 077 15.6
2016-May-24 07:26 15.6
2016-May-24 07:21 15.6
2016-May-24 07:16 257 15.6
2016-May-24 07:06 180 15.0
2016-May-24 07:01 089 15.0
2016-May-24 06:51 068 15.0
2016-May-24 06:41 091 14.4
2016-May-24 06:36 180 14.4
2016-May-24 06:31 158 14.4
2016-May-24 06:26 202 14.4
2016-May-24 06:21 022 13.9
2016-May-24 06:11 045 13.3
2016-May-24 06:06 180 13.3
2016-May-24 06:01 022 13.3
2016-May-24 05:56 158 13.3
2016-May-24 05:51 007 13.3
2016-May-24 05:46 006 13.3
2016-May-24 05:41 022 12.8
2016-May-24 05:36 002 12.8
2016-May-24 05:31 022 12.8
2016-May-24 05:26 022 12.8
2016-May-24 05:21 022 12.8
2016-May-24 05:16 037 12.2
2016-May-24 05:11 180 12.2
2016-May-24 05:01 12.2
2016-May-24 04:56 022 12.2
2016-May-24 04:51 022 12.2
2016-May-24 04:46 12.2
2016-May-24 04:41 11.7
2016-May-24 04:31 348 11.7
2016-May-24 04:21 045 11.7
2016-May-24 04:16 315 11.7
2016-May-24 04:11 022 11.7
2016-May-24 04:06 11.7
2016-May-24 03:56 022 11.7
2016-May-24 03:46 009 11.7
2016-May-24 03:41 022 11.7
2016-May-24 03:36 022 11.7
2016-May-24 03:26 022 11.7
2016-May-24 03:21 022 12.2
2016-May-24 03:16 022 12.2
2016-May-24 03:06 12.2
2016-May-24 03:01 171 12.2
2016-May-24 02:46 302 12.8
2016-May-24 02:41 12.8
2016-May-24 02:36 202 12.8
2016-May-24 02:26 12.8
2016-May-24 02:16 180 12.8
2016-May-24 02:11 225 12.8
2016-May-24 02:01 228 13.3
2016-May-24 01:51 338 13.3
2016-May-24 01:46 13.3
2016-May-24 01:41 13.3
2016-May-24 01:36 289 13.3
2016-May-24 01:26 180 13.3
2016-May-24 01:21 338 13.3
2016-May-24 01:16 197 13.3
2016-May-24 00:56 202 13.3
2016-May-24 00:46 187 13.3
2016-May-24 00:41 180 13.3
2016-May-24 00:36 180 13.3
2016-May-24 00:31 180 13.3
2016-May-24 00:26 180 13.3
2016-May-24 00:21 180 13.3
2016-May-24 00:16 180 13.3
2016-May-24 00:11 158 13.3
2016-May-24 00:06 090 13.3
2016-May-23 23:56 068 13.3
2016-May-23 23:51 021 13.3
2016-May-23 23:41 202 13.9
2016-May-23 23:36 202 13.9
2016-May-23 23:31 056 13.9
2016-May-23 23:21 114 13.9
2016-May-23 23:06 13.9
2016-May-23 23:01 178 13.9
2016-May-23 22:56 180 13.9
2016-May-23 22:46 147 13.9
2016-May-23 22:41 112 13.9
2016-May-23 22:31 158 13.9
2016-May-23 22:21 202 13.9
2016-May-23 22:11 338 13.9
2016-May-23 22:01 154 14.4
2016-May-23 21:56 202 14.4
2016-May-23 21:51 202 14.4
2016-May-23 21:41 043 14.4
2016-May-23 21:31 264 14.4
2016-May-23 21:26 248 14.4
2016-May-23 21:21 090 14.4
2016-May-23 21:16 253 14.4
2016-May-23 21:11 158 15.0
2016-May-23 21:06 113 15.0
2016-May-23 21:01 195 15.0
2016-May-23 20:56 045 15.0
2016-May-23 20:41 202 14.4
2016-May-23 20:26 202 14.4
2016-May-23 20:21 158 14.4
2016-May-23 20:16 094 14.4
2016-May-23 20:06 202 14.4
2016-May-23 20:01 173 14.4
2016-May-23 19:56 202 14.4
2016-May-23 19:36 225 14.4
2016-May-23 19:21 202 15.0
2016-May-23 19:16 258 15.0
2016-May-23 19:11 202 15.0
2016-May-23 19:06 202 15.0
2016-May-23 19:01 081 15.6
2016-May-23 18:56 068 15.6
2016-May-23 18:51 068 15.6
2016-May-23 18:41 135 15.6
2016-May-23 18:36 319 15.6
2016-May-23 18:26 022 15.6
2016-May-23 18:21 112 15.6
2016-May-23 18:16 075 1 gusting 1 15.6
2016-May-23 18:11 090 15.6
2016-May-23 18:06 090 15.6
2016-May-23 17:56 045 15.6
2016-May-23 17:51 045 16.1
2016-May-23 17:41 045 16.1
2016-May-23 17:36 022 0 gusting 0 16.1
2016-May-23 17:31 022 1 gusting 2 16.1
2016-May-23 17:16 013 1 gusting 1 16.7
2016-May-23 17:11 022 0 gusting 1 16.7
2016-May-23 17:06 17.2
2016-May-23 16:51 350 0 gusting 0 17.2
2016-May-23 16:46 043 0 gusting 1 17.8
2016-May-23 16:41 022 0 gusting 2 17.8
2016-May-23 16:36 338 1 gusting 2 17.8
2016-May-23 16:16 014 1 gusting 1 17.8
2016-May-23 16:11 18.3
2016-May-23 16:06 330 0 gusting 0 18.3
2016-May-23 16:01 342 4 gusting 5 18.9
2016-May-23 15:51 315 1 gusting 1 18.9
2016-May-23 15:41 022 0 gusting 2 18.9
2016-May-23 15:31 225 1 gusting 1 18.9
2016-May-23 15:26 090 0 gusting 1 19.4
2016-May-23 15:21 19.4
2016-May-23 15:16 065 19.4
2016-May-23 15:06 063 1 gusting 2 19.4
2016-May-23 15:01 184 5 gusting 8 19.4
2016-May-23 14:56 135 0 gusting 0 19.4
2016-May-23 14:46 176 2 gusting 4 19.4
2016-May-23 14:41 022 4 gusting 4 19.4
2016-May-23 14:36 180 4 gusting 4 19.4
2016-May-23 14:31 089 0 gusting 0 19.4
2016-May-23 14:26 338 1 gusting 2 20.0
2016-May-23 14:21 089 20.0
2016-May-23 14:16 19.4
2016-May-23 14:11 315 2 gusting 2 19.4
2016-May-23 14:06 043 20.0
2016-May-23 14:01 170 0 gusting 2 19.4
2016-May-23 13:56 045 2 gusting 2 19.4
2016-May-23 13:51 19.4
2016-May-23 13:46 025 1 gusting 2 19.4
2016-May-23 13:41 19.4
2016-May-23 13:21 210 0 gusting 2 18.9
2016-May-23 13:16 041 1 gusting 1 18.9
2016-May-23 13:11 022 1 gusting 1 19.4
2016-May-23 13:06 063 19.4
2016-May-23 13:01 19.4
2016-May-23 12:56 022 2 gusting 2 19.4
2016-May-23 12:51 039 1 gusting 2 19.4
2016-May-23 12:36 19.4
2016-May-23 12:31 010 1 gusting 2 20.0
2016-May-23 12:26 022 2 gusting 2 20.0
2016-May-23 12:21 003 0 gusting 2 20.0
2016-May-23 12:16 316 0 gusting 4 20.0
2016-May-23 12:11 20.0
2016-May-23 12:06 034 20.6
2016-May-23 11:51 20.0
2016-May-23 11:46 041 0 gusting 1 19.4
2016-May-23 11:41 20.0
2016-May-23 11:31 005 1 gusting 1 20.0
2016-May-23 11:26 19.4
2016-May-23 11:21 169 0 gusting 1 19.4
2016-May-23 11:16 006 19.4
2016-May-23 11:01 022 1 gusting 1 20.0
2016-May-23 10:56 20.0
2016-May-23 10:41 19.4
2016-May-23 10:36 299 2 gusting 2 18.9
2016-May-23 10:26 112 18.3
2016-May-23 10:21 017 18.3
2016-May-23 10:06 17.2
2016-May-23 10:01 202 16.7
2016-May-23 09:56 315 16.7
2016-May-23 09:51 325 16.7
2016-May-23 09:46 022 16.1
2016-May-23 09:41 16.1
2016-May-23 09:36 151 16.1
2016-May-23 09:31 022 16.1
2016-May-23 09:26 045 16.1
2016-May-23 09:16 045 16.1
2016-May-23 09:11 045 0 gusting 0 16.1
2016-May-23 09:06 127 16.1
2016-May-23 09:01 053 16.1
2016-May-23 08:56 022 16.1
2016-May-23 08:51 022 16.1
2016-May-23 08:41 16.7
2016-May-23 08:31 357 16.7
2016-May-23 08:26 338 17.2
2016-May-23 08:16 292 17.8
2016-May-23 08:11 068 17.8
2016-May-23 08:06 022 17.8
2016-May-23 08:01 18.3
2016-May-23 07:41 180 18.9
2016-May-23 07:26 026 18.9
2016-May-23 07:21 315 19.4
2016-May-23 07:16 202 19.4
2016-May-23 07:11 181 0 gusting 1 20.0
2016-May-23 07:06 225 20.0
2016-May-23 07:01 045 0 gusting 1 20.6
2016-May-23 06:56 052 0 gusting 1 20.0
2016-May-23 06:51 202 20.0
2016-May-23 06:46 202 20.0
2016-May-23 06:41 158 19.4
2016-May-23 06:36 019 18.9
2016-May-23 06:31 202 18.9
2016-May-23 06:26 158 18.3
2016-May-23 06:21 190 17.8
2016-May-23 06:11 243 16.7
2016-May-23 06:06 180 16.7
2016-May-23 05:56 177 16.1
2016-May-23 05:51 045 16.1
2016-May-23 05:41 120 15.6
2016-May-23 05:36 075 15.0
2016-May-23 05:26 047 15.0
2016-May-23 05:11 356 15.0
2016-May-23 05:06 154 15.0
2016-May-23 04:46 068 15.0
2016-May-23 04:41 116 15.0
2016-May-23 04:36 180 15.0
2016-May-23 04:21 120 14.4
2016-May-23 04:16 112 14.4
2016-May-23 04:11 090 14.4
2016-May-23 03:51 075 14.4
2016-May-23 03:46 112 14.4
2016-May-23 03:41 112 14.4
2016-May-23 03:31 14.4
2016-May-23 03:21 278 15.0
2016-May-23 03:16 022 15.0
2016-May-23 03:06 090 15.0
2016-May-23 03:01 068 15.0
2016-May-23 02:56 070 15.0
2016-May-23 02:46 338 15.0
2016-May-23 02:41 048 15.0
2016-May-23 02:31 022 15.6
2016-May-23 02:26 014 0 gusting 0 15.6
2016-May-23 02:21 15.6
2016-May-23 02:16 022 15.6
2016-May-23 01:56 084 15.0
2016-May-23 01:41 158 15.0
2016-May-23 01:36 158 15.0
2016-May-23 01:31 315 15.0
2016-May-23 01:26 207 15.0
2016-May-23 01:21 202 15.0
2016-May-23 01:06 206 15.6
2016-May-23 01:01 180 15.6
2016-May-23 00:56 203 15.6
2016-May-23 00:51 180 15.6
2016-May-23 00:46 188 15.6
2016-May-23 00:41 150 15.6
2016-May-23 00:36 075 15.6
2016-May-23 00:26 158 15.6
2016-May-23 00:21 090 15.6
2016-May-23 00:16 070 15.6
2016-May-23 00:11 068 15.6
2016-May-23 00:06 090 16.1
2016-May-22 23:51 090 16.1
2016-May-22 23:46 112 16.1
2016-May-22 23:26 230 16.7
2016-May-22 23:16 225 17.2
2016-May-22 23:11 225 17.2
2016-May-22 23:01 225 17.2
2016-May-22 22:51 248 17.8
2016-May-22 22:36 270 17.8
2016-May-22 22:31 270 18.3
2016-May-22 22:21 338 18.9
2016-May-22 22:11 18.9
2016-May-22 22:06 045 18.3
2016-May-22 22:01 045 18.9
2016-May-22 21:56 315 18.9
2016-May-22 21:51 338 18.9
2016-May-22 21:46 338 18.9
2016-May-22 21:41 292 18.9
2016-May-22 21:36 323 19.4
2016-May-22 21:31 338 19.4
2016-May-22 21:26 338 19.4
2016-May-22 21:11 292 19.4
2016-May-22 21:06 292 19.4
2016-May-22 20:56 292 20.6
2016-May-22 20:51 292 20.6
2016-May-22 20:46 292 20.6
2016-May-22 20:41 225 20.6
2016-May-22 20:36 202 20.6
2016-May-22 20:31 202 20.6
2016-May-22 20:21 202 20.6
2016-May-22 20:11 180 20.6
2016-May-22 20:06 180 20.6
2016-May-22 20:01 180 21.1
2016-May-22 19:41 158 21.7
2016-May-22 19:36 158 21.7
2016-May-22 19:31 202 21.7
2016-May-22 19:26 202 22.2
2016-May-22 19:21 202 22.2
2016-May-22 19:16 128 22.2
2016-May-22 19:11 068 22.2
2016-May-22 19:06 158 22.2
2016-May-22 19:01 158 22.2
2016-May-22 18:51 180 22.8
2016-May-22 18:46 180 22.8
2016-May-22 18:36 180 23.3
2016-May-22 18:31 238 23.9
2016-May-22 18:27 202 23.9
2016-May-22 18:21 045 24.4
2016-May-22 18:16 045 24.4
2016-May-22 18:11 048 24.4
2016-May-22 18:06 068 24.4
2016-May-22 18:01 24.4
2016-May-22 17:56 022 25.0
2016-May-22 17:46 022 25.0
2016-May-22 17:36 045 25.6
2016-May-22 17:31 041 25.6
2016-May-22 17:26 315 25.6
2016-May-22 17:11 25.6
2016-May-22 17:01 26.1
2016-May-22 16:56 051 26.1
2016-May-22 16:51 26.1
2016-May-22 16:36 301 26.7
2016-May-22 16:31 343 26.7
2016-May-22 16:26 010 26.7
2016-May-22 16:16 357 26.7
2016-May-22 16:11 359 26.7
2016-May-22 16:06 26.7
2016-May-22 16:01 27.2
2016-May-22 15:46 27.2
2016-May-22 15:41 022 27.2
2016-May-22 15:36 292 27.2
2016-May-22 15:31 338 27.2
2016-May-22 15:26 022 27.2
2016-May-22 15:16 27.8
2016-May-22 15:11 012 27.8
2016-May-22 15:06 27.8
2016-May-22 14:56 303 27.8
2016-May-22 14:51 27.8
2016-May-22 14:41 351 27.8
2016-May-22 14:31 022 27.8
2016-May-22 14:26 022 1 gusting 1 27.8
2016-May-22 14:11 315 0 gusting 0 27.8
2016-May-22 14:06 27.8
2016-May-22 14:01 27.8
2016-May-22 13:56 016 27.8
2016-May-22 13:41 27.8
2016-May-22 13:36 012 27.8
2016-May-22 13:31 28.3
2016-May-22 13:26 011 28.3
2016-May-22 13:21 022 0 gusting 0 28.3
2016-May-22 13:16 001 28.3
2016-May-22 13:06 27.8
2016-May-22 13:01 27.8